Content
SEND FEEDBACK

Daily
Averages
Monthly
Summary
United States of America

LOOKEBA, OKLAHOMA


Home > North America > United States > Oklahoma
Elevation: 1455 feet     Latitude: 35 22N     Longitude: 098 22W

WEATHER
 
SELECT A DAY
Number of Records: 174,880;   Date Range: 7/10/07 - 9/17/14
 
SHARE

PRINT THIS DATA

[ ← Previous Day ]
WEATHER ALMANAC - FEBRUARY 13, 2013
[ Next Day → ]
[ °C ]   °F
Weather ElementAverageHighLow
Temperature33.4 °F42.8 °F (4:15 pm)26.6 °F (4:55 am)
Dewpoint28.5 °F33.8 °F (4:55 pm)23 °F (8:15 am)
Humidity82.6 %100 % (12:35 am)66 % (4:15 pm)
Barometer30.03 in30.08 in (10:35 am)29.97 in (6:55 pm)
Wind Speed5.3 mph9.2 mph (12:55 am)
Weather ElementAverage
Visibility9.4 mi
Wind DirectionWSW (231.6 °)

Weather ElementTotal
Precipitation---
Heating Degree Days30.3 (Base 65)
Averaged from 70 records on February 13, 2013
WEATHER CONDITIONS BREAKOUT
WIND DIRECTION BREAKOUT
WEATHER BY HOUR - FEBRUARY 13, 2013
[ °C ]   °F
Local TimeTemperatureDewpointHumidityBarometerVisibilityWind DirectionWind SpeedGust SpeedPrecipitationEventsConditions
12:35 AM32.0 °F32.0 °F100 %30.06 in4.0 miWNW (290°)8.1 mphOvercast
12:55 AM32.0 °F32.0 °F100 %30.07 in0.8 miWNW (290°)9.2 mphOvercast
1:15 AM32.0 °F32.0 °F100 %30.06 in1.8 miWNW (290°)6.9 mphOvercast
1:35 AM32.0 °F32.0 °F100 %30.06 in7.0 miWNW (300°)5.8 mphOvercast
1:55 AM30.2 °F30.2 °F100 %30.06 in5.0 miWest (270°)8.1 mphScattered Clouds
2:15 AM28.4 °F28.4 °F100 %30.06 in7.0 miWest (280°)8.1 mphClear
2:35 AM28.4 °F28.4 °F100 %30.06 in10.0 miWNW (290°)5.8 mphClear
2:55 AM28.4 °F26.6 °F93 %30.05 in10.0 miWNW (290°)4.6 mphClear
3:15 AM28.4 °F26.6 °F93 %30.04 in10.0 miNW (310°)5.8 mphClear
3:35 AM28.4 °F26.6 °F93 %30.04 in10.0 miWNW (300°)6.9 mphClear
3:55 AM28.4 °F26.6 °F93 %30.03 in10.0 miWest (270°)4.6 mphClear
4:15 AM28.4 °F26.6 °F93 %30.03 in10.0 miWest (270°)6.9 mphClear
4:35 AM28.4 °F26.6 °F93 %30.02 in10.0 miWest (280°)6.9 mphClear
4:55 AM26.6 °F24.8 °F93 %30.02 in7.0 miWNW (290°)4.6 mphClear
5:15 AM28.4 °F26.6 °F93 %30.02 in10.0 miWNW (290°)6.9 mphClear
5:35 AM28.4 °F26.6 °F93 %30.02 in10.0 miWNW (290°)3.5 mphClear
5:55 AM26.6 °F26.6 °F100 %30.02 in10.0 miWest (270°)5.8 mphClear
6:15 AM28.4 °F26.6 °F93 %30.03 in10.0 miWest (270°)5.8 mphClear
6:35 AM28.4 °F24.8 °F86 %30.04 in10.0 miWest (270°)6.9 mphClear
6:55 AM28.4 °F24.8 °F86 %30.04 in10.0 miWest (260°)8.1 mphClear
7:15 AM28.4 °F24.8 °F86 %30.04 in10.0 miWest (280°)5.8 mphClear
7:35 AM28.4 °F24.8 °F86 %30.04 in10.0 miWSW (250°)4.6 mphClear
7:55 AM28.4 °F24.8 °F86 %30.06 in10.0 miWest (270°)3.5 mphClear
8:15 AM28.4 °F23.0 °F80 %30.06 in10.0 miWest (270°)5.8 mphClear
8:35 AM26.6 °F23.0 °F86 %30.06 in10.0 miWest (270°)3.5 mphClear
8:55 AM28.4 °F23.0 °F80 %30.06 in10.0 miWNW (290°)9.2 mphClear
9:15 AM30.2 °F24.8 °F80 %30.06 in10.0 miWNW (300°)8.1 mphClear
9:35 AM30.2 °F24.8 °F80 %30.06 in10.0 miWNW (300°)9.2 mphClear
9:55 AM30.2 °F24.8 °F80 %30.07 in10.0 miWest (280°)6.9 mphClear
10:15 AM32.0 °F24.8 °F75 %30.07 in10.0 miWest (270°)6.9 mphClear
10:35 AM32.0 °F24.8 °F75 %30.08 in10.0 miWest (270°)4.6 mphClear
10:55 AM32.0 °F24.8 °F75 %30.07 in10.0 miWest (270°)4.6 mphClear
11:15 AM33.8 °F26.6 °F75 %30.08 in10.0 miWest (280°)6.9 mphClear
11:35 AM32.0 °F26.6 °F80 %30.08 in10.0 miWest (270°)4.6 mphClear
11:55 AM33.8 °F28.4 °F81 %30.07 in10.0 miCalmClear
12:15 PM35.6 °F28.4 °F75 %30.06 in10.0 miSSW (200°)4.6 mphClear
12:55 PM37.4 °F30.2 °F75 %30.04 in10.0 miWSW (240°)3.5 mphClear
1:15 PM37.4 °F30.2 °F75 %30.04 in10.0 miWSW (250°)4.6 mphClear
1:35 PM37.4 °F30.2 °F75 %30.03 in10.0 miWest (270°)8.1 mphClear
1:55 PM37.4 °F30.2 °F75 %30.02 in10.0 miWest (260°)4.6 mphClear
2:15 PM39.2 °F30.2 °F70 %30.02 in10.0 miWSW (240°)5.8 mphClear
2:35 PM39.2 °F32.0 °F75 %30.01 in7.0 miSW (220°)6.9 mphClear
2:55 PM41.0 °F32.0 °F70 %30.00 in10.0 miWSW (240°)8.1 mphClear
3:15 PM41.0 °F32.0 °F70 %30.00 in10.0 miWSW (240°)9.2 mphClear
3:35 PM41.0 °F32.0 °F70 %30.00 in10.0 miSW (230°)4.6 mphClear
3:55 PM41.0 °F32.0 °F70 %30.00 in10.0 miSSW (210°)5.8 mphClear
4:15 PM42.8 °F32.0 °F66 %30.00 in10.0 miWSW (240°)6.9 mphClear
4:35 PM42.8 °F32.0 °F66 %29.99 in10.0 miSW (230°)5.8 mphClear
4:55 PM42.8 °F33.8 °F70 %29.99 in10.0 miSW (230°)6.9 mphClear
5:15 PM42.8 °F33.8 °F70 %29.99 in10.0 miSW (220°)8.1 mphClear
5:35 PM41.0 °F32.0 °F70 %29.98 in10.0 miSW (230°)6.9 mphClear
5:55 PM41.0 °F32.0 °F70 %29.98 in10.0 miWSW (240°)5.8 mphClear
6:15 PM39.2 °F32.0 °F75 %29.98 in10.0 miSW (230°)3.5 mphClear
6:35 PM39.2 °F32.0 °F75 %29.98 in10.0 miSW (230°)3.5 mphClear
6:55 PM37.4 °F32.0 °F81 %29.97 in10.0 miSSW (210°)4.6 mphClear
7:15 PM35.6 °F32.0 °F87 %29.97 in10.0 miSW (220°)6.9 mphClear
7:35 PM35.6 °F30.2 °F81 %29.98 in10.0 miSW (230°)4.6 mphClear
7:55 PM35.6 °F28.4 °F75 %29.98 in10.0 miSW (230°)5.8 mphClear
8:15 PM37.4 °F30.2 °F75 %29.98 in10.0 miSW (230°)6.9 mphClear
8:35 PM37.4 °F28.4 °F70 %29.98 in10.0 miWSW (240°)5.8 mphClear
8:55 PM35.6 °F28.4 °F75 %29.99 in10.0 miCalmClear
9:15 PM32.0 °F28.4 °F87 %29.99 in10.0 miCalmClear
9:35 PM32.0 °F28.4 °F87 %30.00 in10.0 miWNW (290°)4.6 mphClear
9:55 PM32.0 °F28.4 °F87 %30.00 in10.0 miCalmClear
10:15 PM33.8 °F28.4 °F81 %30.00 in10.0 miWest (280°)4.6 mphClear
10:35 PM33.8 °F28.4 °F81 %30.00 in10.0 miCalmClear
10:55 PM32.0 °F28.4 °F87 %30.00 in10.0 miCalmClear
11:15 PM32.0 °F28.4 °F87 %30.01 in10.0 miCalmClear
11:35 PM32.0 °F28.4 °F87 %30.01 in10.0 miCalmClear
11:55 PM32.0 °F28.4 °F87 %30.01 in10.0 miWNW (290°)3.5 mphClear
Hourly data recorded from KOJA, located miles away from Lookeba, Oklahoma







STORIES FROM OUR PARTNERS